Estación de Morza Norte

Ultimos registro cada 15 minutos 24
Estación Fecha / Hora Temperatura Humedad Lluvia Velocidad Dirección Radiación Presion
24 Morza Norte 09-05-2026 05:45 8,7 69 0 0 118 0 1019,8
23 Morza Norte 09-05-2026 05:30 8,7 99 0 0 118 0 1019,8
22 Morza Norte 09-05-2026 05:15 8,6 70 0 0 124 0 1019,8
21 Morza Norte 09-05-2026 05:00 8,6 70 0 0 116 0 1019,7
20 Morza Norte 09-05-2026 04:45 8,6 70 0 0 104 0 1019,9
19 Morza Norte 09-05-2026 04:30 8,4 99 0 0 104 0 1019,8
18 Morza Norte 09-05-2026 04:15 8,4 70 0 0 104 0 1020
17 Morza Norte 09-05-2026 04:00 8,3 70 0 0 104 0 1020
16 Morza Norte 09-05-2026 03:45 8,3 70 0 0 104 0 1020,1
15 Morza Norte 09-05-2026 03:30 8,4 71 0 0 104 0 1020,4
14 Morza Norte 09-05-2026 03:15 8,4 71 0 0 104 0 1020,5
13 Morza Norte 09-05-2026 03:00 8,3 71 0 0 104 0 1020,5
12 Morza Norte 09-05-2026 02:45 8,3 71 0 0 104 0 1020,5
11 Morza Norte 09-05-2026 02:30 8,2 99 0 0 104 0 1020,5
10 Morza Norte 09-05-2026 02:15 8,2 71 0 0 104 0 1020,7
9 Morza Norte 09-05-2026 02:00 8,1 71 0 0 104 0 1020,8
8 Morza Norte 09-05-2026 01:45 8 71 0 0 104 0 1020,9
7 Morza Norte 09-05-2026 01:30 8 99 0 0 101 0 1020,8
6 Morza Norte 09-05-2026 01:15 7,9 71 0 0 100 0 1020,9
5 Morza Norte 09-05-2026 01:00 7,7 71 0 0 99 0 1020,9
4 Morza Norte 09-05-2026 00:45 7,7 71 0 0 111 0 1020,8
3 Morza Norte 09-05-2026 00:30 7,7 99 0 0 111 0 1020,9
2 Morza Norte 09-05-2026 00:15 7,7 71 0 0 110 0 1020,7
1 Morza Norte 09-05-2026 00:00 7,9 71 0 0 116 0 1020,8